sat.trackr.live / text

‹ back to catalog

STARLINK-36697

NORAD 67698 · 2026-025F

PAYLOAD ACTIVE UNKNOWN

§ Identity

Operator
Country
US
Launch date
2026-02-07
Launch site
AFWTR
Launch vehicle
Mass (kg)
RCS (m²)

Purposes: comms

External: N2YO · Heavens-Above · Gunter

§ Orbital elements

Epoch: 2026-05-25T00:52:24.034656Z

Period
93.91 min
Inclination
97.2840°
Eccentricity
0.0000419
Mean motion
15.33453333 rev/d
Perigee alt
465.2 km
Apogee alt
465.8 km
Semi-major
6,843.7 km
B*
3.1378e-4
RAAN
256.6631°
Arg perigee
40.9774°
Mean anomaly
319.1500°
Rev number
1,771

§ Raw data

STARLINK-366971 67698U 26025F   26145.03638929  .00010071  00000+0  31378-3 0  99922 67698  97.2840 256.6631 0000419  40.9774 319.1500 15.33453333 17710

JSON: /api/v1/satellites/67698 · /tle

For live sub-satellite position, see the globe view (requires WebGL).

§ Visibility from observer

Set your observer location to see the next 7 days of passes ≥ 10°. The values pass through the URL so the page stays shareable.

No JS? Fill the form by hand. The geolocation button needs JavaScript.